Location: Unspecified
(0.0000°N, 0.0000°E)
Time: 17:21:08
(UTC+02:00)

Cosmos 1933 - Visible Passes

Search period start: 27 July 2016 00:00
Search period end: 06 August 2016 00:00
Orbit: 550 x 565 km, 82.5° (Epoch: 26 July)

Date Brightness Start Highest point End Pass type
(mag) Time Alt. Az. Time Alt. Az. Time Alt. Az.
27 Jul 5.0 20:32:13 10° NE 20:34:42 16° E 20:37:09 10° ESE visible
27 Jul 6.2 22:08:24 10° NW 22:10:59 16° W 22:13:35 10° SW visible
28 Jul 4.8 20:29:52 10° NE 20:32:47 19° E 20:35:42 10° SE visible
28 Jul 6.4 22:07:04 10° WNW 22:09:04 13° W 22:11:04 10° WSW visible
29 Jul 4.6 20:27:37 10° NNE 20:30:52 23° E 20:34:07 10° SE visible
29 Jul 6.6 22:06:09 10° W 22:07:10 11° W 22:08:09 10° WSW visible
